Location: Unspecified
(44.4377°N, 88.0525°W)
Time: 10:07:31
(UTC-05:00)

Cosmos 1674 - Visible Passes

Search period start: 23 May 2018 00:00
Search period end: 02 June 2018 00:00
Orbit: 496 x 521 km, 82.5° (Epoch: 22 May)

Date Brightness Start Highest point End Pass type
(mag) Time Alt. Az. Time Alt. Az. Time Alt. Az.
23 May 2.7 02:17:49 65° WNW 02:17:49 65° WNW 02:21:24 10° N visible
24 May 2.7 02:00:49 75° N 02:00:49 75° N 02:04:16 10° N visible
25 May 2.9 01:43:48 63° NE 01:43:48 63° NE 01:47:07 10° NNE visible
26 May 3.3 01:26:47 48° ENE 01:26:47 48° ENE 01:29:56 10° NNE visible
26 May 5.1 03:01:38 11° WNW 03:02:13 11° WNW 03:03:24 10° NW visible
27 May 3.7 01:09:44 37° ENE 01:09:44 37° ENE 01:12:41 10° NNE visible
27 May 4.8 02:44:36 14° WNW 02:44:58 14° WNW 02:47:02 10° NW visible
28 May 4.1 00:52:41 29° ENE 00:52:41 29° ENE 00:55:25 10° NNE visible
28 May 4.6 02:27:33 18° WNW 02:27:44 18° WNW 02:30:20 10° NNW visible
29 May 4.4 00:35:37 23° ENE 00:35:37 23° ENE 00:38:04 10° NE visible
29 May 4.3 02:10:29 22° WNW 02:10:30 22° WNW 02:13:30 10° NNW visible
30 May 4.7 00:18:32 19° ENE 00:18:32 19° ENE 00:20:39 10° NE visible
30 May 4.0 01:53:24 28° WNW 01:53:24 28° WNW 01:56:35 10° NNW visible
31 May 4.9 00:01:27 15° ENE 00:01:27 15° ENE 00:03:06 10° NE visible
31 May 3.7 01:36:19 35° WNW 01:36:19 35° WNW 01:39:36 10° N visible
31 May 5.2 23:44:21 12° ENE 23:44:21 12° ENE 23:45:19 10° ENE visible
01 Jun 3.4 01:19:13 45° WNW 01:19:13 45° WNW 01:22:34 10° N visible
